| time (UTC) | temp F | wind direction | speed MPH | gust MPH | rain 1hr in | rain 24hr in | rain mn in | humidity % | barometer mb |
| 20260831122010 | 61 | 26 | 4.0 | 9.0 | 0.00 | 0.00 | 0.00 | 95 | 1021.4 |
| 20260831121543 | 61 | 39 | 3.0 | 10.0 | 0.00 | 0.00 | 0.00 | 95 | 1021.3 |
| 20260831121011 | 60 | 61 | 5.0 | 10.0 | 0.00 | 0.00 | 0.00 | 95 | 1021.3 |
| 20260831120511 | 60 | 51 | 6.0 | 11.0 | 0.00 | 0.00 | 0.00 | 95 | 1021.3 |
| 20260831120034 | 60 | 9 | 6.0 | 11.0 | 0.00 | 0.00 | 0.00 | 95 | 1021.4 |
| 20260831115512 | 60 | 17 | 5.0 | 10.0 | 0.00 | 0.00 | 0.00 | 95 | 1021.4 |
| 20260831115017 | 60 | 34 | 6.0 | 10.0 | 0.00 | 0.00 | 0.00 | 95 | 1021.4 |
| 20260831114533 | 60 | 344 | 5.0 | 10.0 | 0.00 | 0.00 | 0.00 | 95 | 1021.3 |
| 20260831114016 | 60 | 25 | 6.0 | 10.0 | 0.00 | 0.00 | 0.00 | 95 | 1021.2 |
| 20260831113516 | 60 | 51 | 4.0 | 9.0 | 0.00 | 0.00 | 0.00 | 95 | 1021.3 |
| 20260831113032 | 60 | 76 | 2.0 | 5.0 | 0.00 | 0.00 | 0.00 | 95 | 1021.3 |
| 20260831112518 | 59 | 34 | 3.0 | 5.0 | 0.00 | 0.00 | 0.00 | 95 | 1021.2 |
| 20260831112015 | 59 | 41 | 1.0 | 5.0 | 0.00 | 0.00 | 0.00 | 95 | 1021.1 |
| 20260831111531 | 59 | 360 | 1.0 | 5.0 | 0.00 | 0.00 | 0.00 | 95 | 1021.0 |
| 20260831111023 | 59 | 9 | 1.0 | 5.0 | 0.00 | 0.00 | 0.00 | 95 | 1020.9 |
| 20260831110510 | 59 | 336 | 2.0 | 8.0 | 0.00 | 0.00 | 0.00 | 95 | 1020.7 |
| 20260831110028 | 58 | 28 | 5.0 | 8.0 | 0.00 | 0.00 | 0.00 | 95 | 1020.7 |
| 20260831105513 | 58 | 30 | 2.0 | 4.0 | 0.00 | 0.00 | 0.00 | 95 | 1020.7 |
| 20260831105014 | 58 | 319 | 2.0 | 6.0 | 0.00 | 0.00 | 0.00 | 95 | 1020.6 |
| 20260831104529 | 58 | 9 | 1.0 | 8.0 | 0.00 | 0.00 | 0.00 | 94 | 1020.5 |
| 20260831104013 | 58 | 34 | 3.0 | 9.0 | 0.00 | 0.00 | 0.00 | 94 | 1020.5 |
| 20260831103504 | 58 | 336 | 3.0 | 9.0 | 0.00 | 0.00 | 0.00 | 94 | 1020.5 |
| 20260831103014 | 57 | 38 | 5.0 | 9.0 | 0.00 | 0.00 | 0.00 | 94 | 1020.5 |
| 20260831102506 | 57 | 44 | 5.0 | 7.0 | 0.00 | 0.00 | 0.00 | 94 | 1020.5 |
| 20260831102007 | 57 | 36 | 3.0 | 5.0 | 0.00 | 0.00 | 0.00 | 94 | 1020.5 |
| 20260831101522 | 57 | 28 | 3.0 | 4.0 | 0.00 | 0.00 | 0.00 | 94 | 1020.6 |
| 20260831101012 | 57 | 76 | 1.0 | 3.0 | 0.00 | 0.00 | 0.00 | 94 | 1020.6 |
| 20260831100508 | 57 | 178 | 0.0 | 2.0 | 0.00 | 0.00 | 0.00 | 94 | 1020.5 |
| 20260831100003 | 57 | 196 | 1.0 | 2.0 | 0.00 | 0.00 | 0.00 | 94 | 1020.5 |
| 20260831095502 | 57 | 232 | 1.0 | 3.0 | 0.00 | 0.00 | 0.00 | 94 | 1020.5 |
| 20260831095002 | 58 | 265 | 0.0 | 4.0 | 0.00 | 0.00 | 0.00 | 94 | 1020.4 |
| 20260831094505 | 58 | 325 | 1.0 | 4.0 | 0.00 | 0.00 | 0.00 | 94 | 1020.4 |
| 20260831094003 | 58 | 321 | 2.0 | 4.0 | 0.00 | 0.00 | 0.00 | 94 | 1020.4 |
| 20260831093504 | 58 | 9 | 1.0 | 5.0 | 0.00 | 0.00 | 0.00 | 94 | 1020.4 |
| 20260831093016 | 58 | 46 | 2.0 | 6.0 | 0.00 | 0.00 | 0.00 | 94 | 1020.3 |
| 20260831092504 | 58 | 26 | 2.0 | 7.0 | 0.00 | 0.00 | 0.00 | 94 | 1020.2 |
| 20260831092004 | 58 | 42 | 3.0 | 7.0 | 0.00 | 0.00 | 0.00 | 94 | 1020.2 |
| 20260831091513 | 58 | 67 | 3.0 | 6.0 | 0.00 | 0.00 | 0.00 | 93 | 1020.1 |
| 20260831091007 | 58 | 46 | 1.0 | 4.0 | 0.00 | 0.00 | 0.00 | 94 | 1020.1 |
| 20260831090507 | 58 | 38 | 2.0 | 4.0 | 0.00 | 0.00 | 0.00 | 94 | 1020.1 |
| 20260831090016 | 58 | 22 | 1.0 | 3.0 | 0.00 | 0.00 | 0.00 | 94 | 1020.1 |
| 20260831085512 | 58 | 34 | 1.0 | 3.0 | 0.00 | 0.00 | 0.00 | 93 | 1020.0 |
| 20260831085012 | 58 | 238 | 0.0 | 2.0 | 0.00 | 0.00 | 0.00 | 94 | 1020.0 |
| 20260831084505 | 58 | 34 | 0.0 | 3.0 | 0.00 | 0.00 | 0.00 | 93 | 1019.9 |
| 20260831084002 | 58 | 221 | 1.0 | 3.0 | 0.00 | 0.00 | 0.00 | 94 | 1020.0 |
| 20260831083503 | 58 | 178 | 0.0 | 2.0 | 0.00 | 0.00 | 0.00 | 93 | 1019.9 |
| 20260831083004 | 58 | 265 | 1.0 | 2.0 | 0.00 | 0.00 | 0.00 | 93 | 1019.7 |
| 20260831082504 | 59 | 9 | 1.0 | 2.0 | 0.00 | 0.00 | 0.00 | 93 | 1019.7 |
| 20260831082005 | 59 | 309 | 1.0 | 2.0 | 0.00 | 0.00 | 0.00 | 93 | 1019.6 |
| 20260831081511 | 59 | 221 | 0.0 | 2.0 | 0.00 | 0.00 | 0.00 | 93 | 1019.6 |
| 20260831081007 | 59 | 9 | 0.0 | 2.0 | 0.00 | 0.00 | 0.00 | 93 | 1019.6 |
| 20260831080512 | 59 | 221 | 1.0 | 2.0 | 0.00 | 0.00 | 0.00 | 93 | 1019.6 |
| 20260831080015 | 59 | 178 | 0.0 | 3.0 | 0.00 | 0.00 | 0.00 | 93 | 1019.5 |
| 20260831075514 | 59 | 178 | 1.0 | 3.0 | 0.00 | 0.00 | 0.00 | 93 | 1019.4 |
| 20260831075013 | 59 | 254 | 1.0 | 3.0 | 0.00 | 0.00 | 0.00 | 93 | 1019.4 |
| 20260831074525 | 60 | 265 | 1.0 | 3.0 | 0.00 | 0.00 | 0.00 | 93 | 1019.4 |
| 20260831074016 | 60 | 238 | 1.0 | 3.0 | 0.00 | 0.00 | 0.00 | 93 | 1019.5 |
| 20260831073518 | 60 | 265 | 1.0 | 2.0 | 0.00 | 0.00 | 0.00 | 92 | 1019.5 |
| 20260831073033 | 60 | 238 | 0.0 | 2.0 | 0.00 | 0.00 | 0.00 | 92 | 1019.5 |
| 20260831071509 | 60 | 67 | 0.0 | 2.0 | 0.00 | 0.00 | 0.00 | 92 | 1019.4 |
| 20260831071006 | 60 | 126 | 1.0 | 3.0 | 0.00 | 0.00 | 0.00 | 92 | 1019.3 |
| 20260831070508 | 60 | 265 | 1.0 | 3.0 | 0.00 | 0.00 | 0.00 | 92 | 1019.2 |
| 20260831070015 | 60 | 309 | 0.0 | 2.0 | 0.00 | 0.00 | 0.00 | 92 | 1019.2 |
| 20260831065509 | 61 | 291 | 0.0 | 2.0 | 0.00 | 0.00 | 0.00 | 92 | 1019.2 |
| 20260831065005 | 61 | 9 | 1.0 | 3.0 | 0.00 | 0.00 | 0.00 | 92 | 1019.2 |
| 20260831064517 | 61 | 325 | 1.0 | 3.0 | 0.00 | 0.00 | 0.00 | 92 | 1019.2 |
| 20260831064010 | 61 | 9 | 1.0 | 2.0 | 0.00 | 0.00 | 0.00 | 92 | 1019.3 |
| 20260831063511 | 61 | 51 | 0.0 | 3.0 | 0.00 | 0.00 | 0.00 | 91 | 1019.3 |
| 20260831063025 | 61 | 51 | 0.0 | 3.0 | 0.00 | 0.00 | 0.00 | 91 | 1019.3 |
| 20260831062517 | 61 | 309 | 1.0 | 3.0 | 0.00 | 0.00 | 0.00 | 91 | 1019.3 |
| 20260831062014 | 61 | 146 | 1.0 | 3.0 | 0.00 | 0.00 | 0.00 | 91 | 1019.3 |
| 20260831061531 | 61 | 196 | 1.0 | 3.0 | 0.00 | 0.00 | 0.00 | 91 | 1019.3 |
| 20260831061020 | 61 | 178 | 1.0 | 3.0 | 0.00 | 0.00 | 0.00 | 91 | 1019.3 |
| 20260831060503 | 61 | 137 | 0.0 | 2.0 | 0.00 | 0.00 | 0.00 | 91 | 1019.3 |
| 20260831060012 | 61 | 67 | 1.0 | 3.0 | 0.00 | 0.00 | 0.00 | 90 | 1019.3 |
| 20260831055506 | 62 | 212 | 1.0 | 3.0 | 0.00 | 0.00 | 0.00 | 90 | 1019.3 |
| 20260831055008 | 62 | 76 | 1.0 | 3.0 | 0.00 | 0.00 | 0.00 | 89 | 1019.1 |
| 20260831054514 | 62 | 247 | 2.0 | 3.0 | 0.00 | 0.00 | 0.00 | 89 | 1019.1 |
| 20260831054007 | 62 | 238 | 1.0 | 2.0 | 0.00 | 0.00 | 0.00 | 89 | 1019.2 |
| 20260831053515 | 62 | 146 | 0.0 | 4.0 | 0.00 | 0.00 | 0.00 | 89 | 1019.1 |
| 20260831053041 | 62 | 309 | 1.0 | 4.0 | 0.00 | 0.00 | 0.00 | 88 | 1019.0 |
| 20260831052510 | 63 | 67 | 2.0 | 5.0 | 0.00 | 0.00 | 0.00 | 88 | 1019.0 |
| 20260831052011 | 63 | 26 | 2.0 | 5.0 | 0.00 | 0.00 | 0.00 | 88 | 1019.0 |
| 20260831051532 | 63 | 34 | 3.0 | 8.0 | 0.00 | 0.00 | 0.00 | 87 | 1018.9 |
| 20260831051020 | 63 | 336 | 2.0 | 8.0 | 0.00 | 0.00 | 0.00 | 87 | 1018.9 |
| 20260831050514 | 63 | 15 | 4.0 | 7.0 | 0.00 | 0.00 | 0.00 | 86 | 1018.8 |
| 20260831050032 | 63 | 39 | 3.0 | 7.0 | 0.00 | 0.00 | 0.00 | 86 | 1018.9 |
| 20260831045514 | 64 | 76 | 4.0 | 7.0 | 0.00 | 0.00 | 0.00 | 84 | 1018.9 |
| 20260831045004 | 65 | 24 | 3.0 | 7.0 | 0.00 | 0.00 | 0.00 | 85 | 1018.8 |
| 20260831044514 | 64 | 321 | 3.0 | 7.0 | 0.00 | 0.00 | 0.00 | 86 | 1018.8 |
| 20260831044007 | 64 | 19 | 3.0 | 6.0 | 0.00 | 0.00 | 0.00 | 85 | 1018.8 |
| 20260831043508 | 64 | 20 | 3.0 | 5.0 | 0.00 | 0.00 | 0.00 | 83 | 1018.7 |
| 20260831043017 | 65 | 319 | 1.0 | 5.0 | 0.00 | 0.00 | 0.00 | 82 | 1018.6 |
| 20260831042514 | 66 | 26 | 2.0 | 7.0 | 0.00 | 0.00 | 0.00 | 83 | 1018.5 |
| 20260831042010 | 66 | 340 | 2.0 | 7.0 | 0.00 | 0.00 | 0.00 | 83 | 1018.5 |
| 20260831041531 | 65 | 9 | 2.0 | 7.0 | 0.00 | 0.00 | 0.00 | 83 | 1018.5 |
| 20260831041014 | 65 | 13 | 3.0 | 5.0 | 0.00 | 0.00 | 0.00 | 83 | 1018.6 |
| 20260831040514 | 66 | 9 | 2.0 | 9.0 | 0.00 | 0.00 | 0.00 | 82 | 1018.5 |
| 20260831040035 | 66 | 9 | 3.0 | 9.0 | 0.00 | 0.00 | 0.00 | 82 | 1018.4 |
| 20260831035514 | 66 | 32 | 6.0 | 9.0 | 0.00 | 0.00 | 0.00 | 83 | 1018.3 |
| 20260831035017 | 66 | 51 | 5.0 | 10.0 | 0.00 | 0.00 | 0.00 | 82 | 1018.4 |
| 20260831034530 | 67 | 34 | 1.0 | 10.0 | 0.00 | 0.00 | 0.00 | 80 | 1018.4 |
| 20260831034015 | 67 | 67 | 5.0 | 10.0 | 0.00 | 0.00 | 0.00 | 80 | 1018.5 |
| 20260831033516 | 67 | 32 | 2.0 | 7.0 | 0.00 | 0.00 | 0.00 | 81 | 1018.4 |
| 20260831033027 | 66 | 9 | 1.0 | 5.0 | 0.00 | 0.00 | 0.00 | 81 | 1018.5 |
| 20260831032509 | 66 | 314 | 2.0 | 5.0 | 0.00 | 0.00 | 0.00 | 81 | 1018.6 |
| 20260831032016 | 66 | 341 | 2.0 | 4.0 | 0.00 | 0.00 | 0.00 | 81 | 1018.5 |
| 20260831031519 | 66 | 51 | 1.0 | 3.0 | 0.00 | 0.00 | 0.00 | 81 | 1018.4 |
| 20260831031013 | 67 | 146 | 1.0 | 3.0 | 0.00 | 0.00 | 0.00 | 80 | 1018.3 |
| 20260831030509 | 67 | 9 | 0.0 | 3.0 | 0.00 | 0.00 | 0.00 | 79 | 1018.3 |
| 20260831030029 | 68 | 298 | 1.0 | 4.0 | 0.00 | 0.00 | 0.00 | 78 | 1018.3 |
| 20260831025513 | 68 | 338 | 2.0 | 7.0 | 0.00 | 0.00 | 0.00 | 77 | 1018.4 |
| 20260831024530 | 68 | 338 | 2.0 | 7.0 | 0.00 | 0.00 | 0.00 | 77 | 1018.4 |
| 20260831024017 | 69 | 316 | 2.0 | 9.0 | 0.00 | 0.00 | 0.00 | 76 | 1018.4 |
| 20260831023514 | 69 | 48 | 2.0 | 9.0 | 0.00 | 0.00 | 0.00 | 76 | 1018.4 |
| 20260831023037 | 69 | 9 | 2.0 | 7.0 | 0.00 | 0.00 | 0.00 | 76 | 1018.2 |
| 20260831022516 | 69 | 34 | 1.0 | 7.0 | 0.00 | 0.00 | 0.00 | 76 | 1018.2 |
| 20260831022019 | 70 | 247 | 1.0 | 6.0 | 0.00 | 0.00 | 0.00 | 75 | 1018.2 |
| 20260831021532 | 70 | 325 | 1.0 | 8.0 | 0.00 | 0.00 | 0.00 | 75 | 1018.1 |
| 20260831021009 | 70 | 342 | 2.0 | 10.0 | 0.00 | 0.00 | 0.00 | 75 | 1018.1 |
| 20260831020513 | 70 | 9 | 1.0 | 10.0 | 0.00 | 0.00 | 0.00 | 75 | 1018.1 |
| 20260831020046 | 69 | 238 | 3.0 | 7.0 | 0.00 | 0.00 | 0.00 | 76 | 1018.2 |
| 20260831015513 | 69 | 341 | 2.0 | 5.0 | 0.00 | 0.00 | 0.00 | 77 | 1018.3 |
| 20260831015014 | 69 | 316 | 2.0 | 5.0 | 0.00 | 0.00 | 0.00 | 76 | 1018.3 |
| 20260831014530 | 69 | 67 | 0.0 | 6.0 | 0.00 | 0.00 | 0.00 | 76 | 1018.3 |
| 20260831014016 | 69 | 67 | 3.0 | 6.0 | 0.00 | 0.00 | 0.00 | 76 | 1018.4 |
| 20260831013514 | 70 | 67 | 1.0 | 4.0 | 0.00 | 0.00 | 0.00 | 74 | 1018.2 |
| 20260831013035 | 70 | 205 | 1.0 | 3.0 | 0.00 | 0.00 | 0.00 | 74 | 1018.1 |
| 20260831012519 | 70 | 217 | 1.0 | 4.0 | 0.00 | 0.00 | 0.00 | 74 | 1018.2 |
| 20260831012019 | 70 | 51 | 2.0 | 7.0 | 0.00 | 0.00 | 0.00 | 73 | 1018.1 |
| 20260831011534 | 71 | 93 | 1.0 | 7.0 | 0.00 | 0.00 | 0.00 | 73 | 1018.0 |
| 20260831011018 | 71 | 200 | 5.0 | 10.0 | 0.00 | 0.00 | 0.00 | 72 | 1018.0 |
| 20260831010514 | 71 | 191 | 5.0 | 10.0 | 0.00 | 0.00 | 0.00 | 72 | 1018.0 |
| 20260831010021 | 71 | 168 | 3.0 | 8.0 | 0.00 | 0.00 | 0.00 | 70 | 1017.9 |
| 20260831005511 | 71 | 221 | 5.0 | 9.0 | 0.00 | 0.00 | 0.00 | 70 | 1017.9 |
| 20260831005012 | 71 | 247 | 3.0 | 12.0 | 0.00 | 0.00 | 0.00 | 71 | 1018.0 |
| 20260831004544 | 71 | 26 | 3.0 | 12.0 | 0.00 | 0.00 | 0.00 | 70 | 1017.9 |
| 20260831004013 | 71 | 336 | 4.0 | 12.0 | 0.00 | 0.00 | 0.00 | 71 | 1017.8 |
| 20260831003519 | 71 | 132 | 1.0 | 10.0 | 0.00 | 0.00 | 0.00 | 70 | 1017.8 |
| 20260831003029 | 72 | 304 | 4.0 | 10.0 | 0.00 | 0.00 | 0.00 | 69 | 1017.7 |
| 20260831002514 | 72 | 42 | 4.0 | 10.0 | 0.00 | 0.00 | 0.00 | 68 | 1017.6 |
| 20260831002018 | 72 | 342 | 2.0 | 14.0 | 0.00 | 0.00 | 0.00 | 68 | 1017.4 |
| 20260831001535 | 73 | 212 | 1.0 | 14.0 | 0.00 | 0.00 | 0.00 | 67 | 1017.3 |
| 20260831001016 | 73 | 9 | 3.0 | 12.0 | 0.00 | 0.00 | 0.00 | 68 | 1017.4 |
| 20260831000517 | 73 | 304 | 3.0 | 12.0 | 0.00 | 0.00 | 0.00 | 68 | 1017.3 |
| 20260831000019 | 73 | 38 | 3.0 | 7.0 | 0.00 | 0.00 | 0.00 | 69 | 1017.2 |
| 20260830235510 | 73 | 309 | 1.0 | 12.0 | 0.00 | 0.00 | 0.00 | 69 | 1017.0 |
| 20260830235008 | 74 | 229 | 2.0 | 12.0 | 0.00 | 0.00 | 0.00 | 68 | 1016.9 |
| 20260830234535 | 74 | 241 | 5.0 | 13.0 | 0.00 | 0.00 | 0.00 | 67 | 1016.8 |
| 20260830234015 | 74 | 173 | 8.0 | 13.0 | 0.00 | 0.00 | 0.00 | 67 | 1016.7 |
| 20260830233515 | 74 | 221 | 1.0 | 15.0 | 0.00 | 0.00 | 0.00 | 67 | 1016.8 |
| 20260830233029 | 74 | 221 | 5.0 | 15.0 | 0.00 | 0.00 | 0.00 | 68 | 1016.8 |
| 20260830232504 | 74 | 238 | 4.0 | 8.0 | 0.00 | 0.00 | 0.00 | 68 | 1016.8 |
| 20260830232004 | 74 | 229 | 1.0 | 10.0 | 0.00 | 0.00 | 0.00 | 68 | 1016.8 |
| 20260830231516 | 74 | 205 | 2.0 | 10.0 | 0.00 | 0.00 | 0.00 | 68 | 1016.8 |
| 20260830231017 | 74 | 232 | 3.0 | 10.0 | 0.00 | 0.00 | 0.00 | 69 | 1016.7 |
| 20260830230506 | 75 | 238 | 2.0 | 7.0 | 0.00 | 0.00 | 0.00 | 68 | 1016.7 |
| 20260830230033 | 75 | 309 | 2.0 | 9.0 | 0.00 | 0.00 | 0.00 | 68 | 1016.8 |
| 20260830225509 | 75 | 229 | 4.0 | 13.0 | 0.00 | 0.00 | 0.00 | 67 | 1016.8 |
| 20260830225008 | 75 | 259 | 6.0 | 13.0 | 0.00 | 0.00 | 0.00 | 67 | 1016.8 |
| 20260830224520 | 75 | 212 | 5.0 | 12.0 | 0.00 | 0.00 | 0.00 | 68 | 1016.8 |
| 20260830224012 | 75 | 241 | 4.0 | 10.0 | 0.00 | 0.00 | 0.00 | 69 | 1016.8 |
| 20260830223510 | 75 | 219 | 5.0 | 9.0 | 0.00 | 0.00 | 0.00 | 68 | 1016.6 |
| 20260830223028 | 75 | 232 | 4.0 | 11.0 | 0.00 | 0.00 | 0.00 | 69 | 1016.8 |
| 20260830222515 | 75 | 218 | 5.0 | 11.0 | 0.00 | 0.00 | 0.00 | 68 | 1016.8 |
| 20260830222013 | 75 | 218 | 6.0 | 10.0 | 0.00 | 0.00 | 0.00 | 68 | 1016.7 |
| 20260830221531 | 75 | 224 | 4.0 | 10.0 | 0.00 | 0.00 | 0.00 | 70 | 1016.7 |
| 20260830221017 | 75 | 183 | 6.0 | 10.0 | 0.00 | 0.00 | 0.00 | 68 | 1016.8 |
| 20260830220519 | 76 | 217 | 3.0 | 9.0 | 0.00 | 0.00 | 0.00 | 69 | 1016.8 |
| 20260830220011 | 76 | 198 | 5.0 | 7.0 | 0.00 | 0.00 | 0.00 | 68 | 1016.8 |
| 20260830215518 | 76 | 188 | 4.0 | 6.0 | 0.00 | 0.00 | 0.00 | 69 | 1016.7 |
| 20260830215007 | 76 | 221 | 4.0 | 6.0 | 0.00 | 0.00 | 0.00 | 66 | 1016.8 |
| 20260830214516 | 76 | 198 | 3.0 | 6.0 | 0.00 | 0.00 | 0.00 | 65 | 1016.7 |
| 20260830214008 | 77 | 205 | 2.0 | 8.0 | 0.00 | 0.00 | 0.00 | 64 | 1016.7 |
| 20260830213508 | 77 | 198 | 3.0 | 11.0 | 0.00 | 0.00 | 0.00 | 64 | 1016.8 |
| 20260830213037 | 77 | 214 | 6.0 | 15.0 | 0.00 | 0.00 | 0.00 | 62 | 1016.8 |
| 20260830212512 | 77 | 227 | 7.0 | 15.0 | 0.00 | 0.00 | 0.00 | 63 | 1016.8 |
| 20260830212012 | 77 | 201 | 7.0 | 12.0 | 0.00 | 0.00 | 0.00 | 62 | 1016.8 |
| 20260830211548 | 78 | 200 | 6.0 | 12.0 | 0.00 | 0.00 | 0.00 | 61 | 1016.8 |
| 20260830211016 | 78 | 242 | 5.0 | 11.0 | 0.00 | 0.00 | 0.00 | 61 | 1016.9 |
| 20260830210519 | 78 | 218 | 4.0 | 17.0 | 0.00 | 0.00 | 0.00 | 61 | 1016.8 |
| 20260830210025 | 79 | 236 | 6.0 | 17.0 | 0.00 | 0.00 | 0.00 | 60 | 1016.8 |
| 20260830205504 | 79 | 221 | 9.0 | 19.0 | 0.00 | 0.00 | 0.00 | 60 | 1016.9 |
| 20260830205007 | 79 | 219 | 11.0 | 20.0 | 0.00 | 0.00 | 0.00 | 59 | 1016.8 |
| 20260830204515 | 79 | 224 | 9.0 | 20.0 | 0.00 | 0.00 | 0.00 | 60 | 1016.9 |
| 20260830204006 | 79 | 225 | 8.0 | 20.0 | 0.00 | 0.00 | 0.00 | 60 | 1016.9 |
| 20260830203506 | 79 | 178 | 9.0 | 20.0 | 0.00 | 0.00 | 0.00 | 63 | 1016.9 |
| 20260830203030 | 78 | 188 | 7.0 | 19.0 | 0.00 | 0.00 | 0.00 | 63 | 1016.9 |
| 20260830202513 | 79 | 298 | 6.0 | 18.0 | 0.00 | 0.00 | 0.00 | 62 | 1016.8 |
| 20260830202023 | 80 | 210 | 10.0 | 19.0 | 0.00 | 0.00 | 0.00 | 60 | 1016.9 |
| 20260830201527 | 79 | 193 | 8.0 | 19.0 | 0.00 | 0.00 | 0.00 | 61 | 1016.9 |
| 20260830201015 | 79 | 214 | 6.0 | 16.0 | 0.00 | 0.00 | 0.00 | 61 | 1017.0 |
| 20260830200503 | 78 | 184 | 9.0 | 18.0 | 0.00 | 0.00 | 0.00 | 64 | 1016.9 |
| 20260830200009 | 78 | 231 | 8.0 | 18.0 | 0.00 | 0.00 | 0.00 | 61 | 1017.0 |
| 20260830195504 | 79 | 221 | 6.0 | 15.0 | 0.00 | 0.00 | 0.00 | 63 | 1017.0 |
| 20260830195017 | 78 | 232 | 9.0 | 16.0 | 0.00 | 0.00 | 0.00 | 58 | 1017.1 |
| 20260830194514 | 78 | 219 | 9.0 | 16.0 | 0.00 | 0.00 | 0.00 | 60 | 1017.1 |
| 20260830194004 | 78 | 200 | 10.0 | 16.0 | 0.00 | 0.00 | 0.00 | 59 | 1017.1 |
| 20260830193509 | 79 | 224 | 10.0 | 17.0 | 0.00 | 0.00 | 0.00 | 57 | 1017.2 |
| 20260830193020 | 79 | 208 | 9.0 | 17.0 | 0.00 | 0.00 | 0.00 | 57 | 1017.3 |
| 20260830192508 | 80 | 203 | 9.0 | 15.0 | 0.00 | 0.00 | 0.00 | 57 | 1017.3 |
| 20260830192021 | 80 | 225 | 9.0 | 15.0 | 0.00 | 0.00 | 0.00 | 57 | 1017.2 |
| 20260830191537 | 81 | 178 | 7.0 | 15.0 | 0.00 | 0.00 | 0.00 | 57 | 1017.3 |
| 20260830191014 | 80 | 214 | 6.0 | 15.0 | 0.00 | 0.00 | 0.00 | 57 | 1017.3 |
| 20260830190515 | 79 | 238 | 8.0 | 15.0 | 0.00 | 0.00 | 0.00 | 57 | 1017.3 |
| 20260830190031 | 79 | 195 | 7.0 | 12.0 | 0.00 | 0.00 | 0.00 | 58 | 1017.5 |
| 20260830185513 | 79 | 209 | 5.0 | 12.0 | 0.00 | 0.00 | 0.00 | 61 | 1017.6 |
| 20260830185017 | 79 | 215 | 9.0 | 12.0 | 0.00 | 0.00 | 0.00 | 59 | 1017.7 |
| 20260830184511 | 79 | 243 | 5.0 | 9.0 | 0.00 | 0.00 | 0.00 | 63 | 1017.7 |
| 20260830184017 | 79 | 221 | 4.0 | 9.0 | 0.00 | 0.00 | 0.00 | 62 | 1017.7 |
| 20260830183504 | 78 | 162 | 5.0 | 9.0 | 0.00 | 0.00 | 0.00 | 64 | 1017.8 |
| 20260830183014 | 78 | 219 | 4.0 | 12.0 | 0.00 | 0.00 | 0.00 | 64 | 1017.9 |
| 20260830182522 | 78 | 178 | 5.0 | 12.0 | 0.00 | 0.00 | 0.00 | 63 | 1017.9 |
| 20260830182014 | 78 | 194 | 6.0 | 10.0 | 0.00 | 0.00 | 0.00 | 63 | 1017.9 |
| 20260830181534 | 79 | 171 | 5.0 | 10.0 | 0.00 | 0.00 | 0.00 | 61 | 1018.0 |
| 20260830181016 | 78 | 221 | 4.0 | 9.0 | 0.00 | 0.00 | 0.00 | 63 | 1018.0 |
| 20260830180515 | 77 | 219 | 5.0 | 9.0 | 0.00 | 0.00 | 0.00 | 61 | 1018.1 |
| 20260830180245 | 77 | 195 | 3.0 | 8.0 | 0.00 | 0.00 | 0.00 | 65 | 1018.1 |
| 20260830180241 | 76 | 249 | 2.0 | 6.0 | 0.00 | 0.00 | 0.00 | 67 | 1018.2 |
| 20260830180236 | 77 | 215 | 1.0 | 7.0 | 0.00 | 0.00 | 0.00 | 62 | 1018.2 |
| 20260830174022 | 77 | 126 | 1.0 | 6.0 | 0.00 | 0.00 | 0.00 | 64 | 1018.4 |
| 20260830173517 | 77 | 196 | 1.0 | 8.0 | 0.00 | 0.00 | 0.00 | 64 | 1018.4 |
| 20260830173012 | 78 | 209 | 5.0 | 9.0 | 0.00 | 0.00 | 0.00 | 60 | 1018.5 |
| 20260830172508 | 77 | 225 | 4.0 | 9.0 | 0.00 | 0.00 | 0.00 | 63 | 1018.6 |
| 20260830172019 | 77 | 153 | 3.0 | 7.0 | 0.00 | 0.00 | 0.00 | 63 | 1018.5 |
| 20260830171518 | 76 | 205 | 2.0 | 8.0 | 0.00 | 0.00 | 0.00 | 65 | 1018.7 |
| 20260830171021 | 76 | 98 | 1.0 | 8.0 | 0.00 | 0.00 | 0.00 | 66 | 1018.6 |
| 20260830170512 | 76 | 165 | 1.0 | 4.0 | 0.00 | 0.00 | 0.00 | 66 | 1018.6 |
| 20260830170024 | 76 | 67 | 1.0 | 4.0 | 0.00 | 0.00 | 0.00 | 66 | 1018.8 |
| 20260830165510 | 75 | 291 | 0.0 | 6.0 | 0.00 | 0.00 | 0.00 | 65 | 1019.1 |
| 20260830165014 | 75 | 129 | 2.0 | 6.0 | 0.00 | 0.00 | 0.00 | 67 | 1019.2 |
| 20260830164534 | 75 | 132 | 2.0 | 4.0 | 0.00 | 0.00 | 0.00 | 67 | 1019.3 |
| 20260830164018 | 75 | 46 | 1.0 | 7.0 | 0.00 | 0.00 | 0.00 | 67 | 1019.4 |
| 20260830163517 | 75 | 221 | 1.0 | 9.0 | 0.00 | 0.00 | 0.00 | 66 | 1019.5 |
| 20260830163033 | 75 | 202 | 5.0 | 9.0 | 0.00 | 0.00 | 0.00 | 64 | 1019.4 |
| 20260830162517 | 75 | 178 | 3.0 | 8.0 | 0.00 | 0.00 | 0.00 | 67 | 1019.3 |
| 20260830162016 | 75 | 171 | 4.0 | 8.0 | 0.00 | 0.00 | 0.00 | 67 | 1019.5 |
| 20260830161549 | 75 | 137 | 2.0 | 6.0 | 0.00 | 0.00 | 0.00 | 69 | 1019.5 |
| 20260830161021 | 75 | 309 | 1.0 | 6.0 | 0.00 | 0.00 | 0.00 | 71 | 1019.5 |
| 20260830160510 | 75 | 93 | 1.0 | 7.0 | 0.00 | 0.00 | 0.00 | 70 | 1019.6 |
| 20260830160019 | 74 | 67 | 2.0 | 7.0 | 0.00 | 0.00 | 0.00 | 75 | 1019.7 |
| 20260830155510 | 73 | 156 | 2.0 | 6.0 | 0.00 | 0.00 | 0.00 | 73 | 1019.8 |
| 20260830155012 | 73 | 185 | 2.0 | 5.0 | 0.00 | 0.00 | 0.00 | 74 | 1019.8 |
| 20260830154535 | 73 | 221 | 2.0 | 8.0 | 0.00 | 0.00 | 0.00 | 74 | 1019.9 |
| 20260830154012 | 73 | 205 | 4.0 | 8.0 | 0.00 | 0.00 | 0.00 | 70 | 1019.9 |
| 20260830153512 | 73 | 225 | 4.0 | 10.0 | 0.00 | 0.00 | 0.00 | 72 | 1020.0 |
| 20260830153044 | 73 | 173 | 2.0 | 10.0 | 0.00 | 0.00 | 0.00 | 72 | 1020.1 |
| 20260830152516 | 72 | 205 | 4.0 | 8.0 | 0.00 | 0.00 | 0.00 | 72 | 1020.1 |
| 20260830152017 | 72 | 255 | 1.0 | 7.0 | 0.00 | 0.00 | 0.00 | 74 | 1020.1 |
| 20260830151531 | 71 | 205 | 2.0 | 8.0 | 0.00 | 0.00 | 0.00 | 75 | 1020.1 |
| 20260830151017 | 71 | 225 | 4.0 | 8.0 | 0.00 | 0.00 | 0.00 | 74 | 1020.2 |
| 20260830150521 | 70 | 218 | 3.0 | 6.0 | 0.00 | 0.00 | 0.00 | 74 | 1020.2 |
| 20260830150035 | 70 | 198 | 2.0 | 7.0 | 0.00 | 0.00 | 0.00 | 76 | 1020.3 |
| 20260830145509 | 69 | 215 | 4.0 | 7.0 | 0.00 | 0.00 | 0.00 | 76 | 1020.2 |
| 20260830145011 | 70 | 190 | 2.0 | 5.0 | 0.00 | 0.00 | 0.00 | 75 | 1020.1 |
| 20260830144534 | 70 | 205 | 3.0 | 8.0 | 0.00 | 0.00 | 0.00 | 74 | 1020.2 |
| 20260830144012 | 70 | 219 | 4.0 | 8.0 | 0.00 | 0.00 | 0.00 | 72 | 1020.3 |
| 20260830143515 | 70 | 219 | 5.0 | 8.0 | 0.00 | 0.00 | 0.00 | 72 | 1020.4 |
| 20260830143037 | 70 | 207 | 3.0 | 9.0 | 0.00 | 0.00 | 0.00 | 72 | 1020.5 |
| 20260830142515 | 70 | 225 | 4.0 | 9.0 | 0.00 | 0.00 | 0.00 | 73 | 1020.4 |
| 20260830142017 | 70 | 219 | 5.0 | 9.0 | 0.00 | 0.00 | 0.00 | 73 | 1020.4 |
| 20260830141531 | 70 | 213 | 5.0 | 9.0 | 0.00 | 0.00 | 0.00 | 73 | 1020.5 |
| 20260830141015 | 70 | 210 | 6.0 | 9.0 | 0.00 | 0.00 | 0.00 | 72 | 1020.5 |
| 20260830140516 | 69 | 203 | 6.0 | 8.0 | 0.00 | 0.00 | 0.00 | 74 | 1020.5 |
| 20260830140038 | 69 | 224 | 3.0 | 7.0 | 0.00 | 0.00 | 0.00 | 76 | 1020.6 |
| 20260830135518 | 69 | 210 | 3.0 | 7.0 | 0.00 | 0.00 | 0.00 | 76 | 1020.5 |
| 20260830135015 | 69 | 170 | 3.0 | 8.0 | 0.00 | 0.00 | 0.00 | 75 | 1020.5 |
| 20260830134537 | 69 | 133 | 2.0 | 9.0 | 0.00 | 0.00 | 0.00 | 76 | 1020.4 |
| 20260830134015 | 69 | 221 | 4.0 | 9.0 | 0.00 | 0.00 | 0.00 | 73 | 1020.5 |
| 20260830133513 | 68 | 265 | 1.0 | 10.0 | 0.00 | 0.00 | 0.00 | 75 | 1020.6 |
| 20260830133035 | 68 | 200 | 6.0 | 12.0 | 0.00 | 0.00 | 0.00 | 74 | 1020.6 |
| 20260830132513 | 68 | 196 | 8.0 | 12.0 | 0.00 | 0.00 | 0.00 | 75 | 1020.6 |
| 20260830132013 | 68 | 186 | 7.0 | 11.0 | 0.00 | 0.00 | 0.00 | 76 | 1020.6 |
| 20260830131530 | 67 | 216 | 7.0 | 12.0 | 0.00 | 0.00 | 0.00 | 76 | 1020.7 |
| 20260830131019 | 66 | 196 | 7.0 | 12.0 | 0.00 | 0.00 | 0.00 | 78 | 1020.8 |
| 20260830130515 | 65 | 167 | 4.0 | 7.0 | 0.00 | 0.00 | 0.00 | 81 | 1020.8 |
| 20260830130051 | 64 | 217 | 3.0 | 6.0 | 0.00 | 0.00 | 0.00 | 82 | 1020.9 |
| 20260830125518 | 63 | 236 | 2.0 | 6.0 | 0.00 | 0.00 | 0.00 | 83 | 1020.9 |
| 20260830125014 | 63 | 249 | 2.0 | 4.0 | 0.00 | 0.00 | 0.00 | 84 | 1021.0 |
| 20260830124534 | 62 | 265 | 1.0 | 5.0 | 0.00 | 0.00 | 0.00 | 86 | 1021.1 |
| 20260830124018 | 62 | 137 | 2.0 | 5.0 | 0.00 | 0.00 | 0.00 | 86 | 1021.1 |
| 20260830123519 | 62 | 51 | 1.0 | 3.0 | 0.00 | 0.00 | 0.00 | 86 | 1021.1 |
| 20260830123035 | 62 | 165 | 1.0 | 3.0 | 0.00 | 0.00 | 0.00 | 86 | 1021.1 |
| 20260830122519 | 62 | 265 | 0.0 | 5.0 | 0.00 | 0.00 | 0.00 | 88 | 1021.3 |